Harbor Springs, MI

5:25 AM EDT on September 26, 2017 (GMT -0400)
Harbor Springs

Weather History for KMGN - December, 2013

Change the Weather History Date:

Monday, December 23, 2013

  Actual Average (KPLN) Record (KPLN)
Temperature  
Mean Temperature 10 °F -  
Max Temperature 14 °F 29 °F 57 °F (2015)
Min Temperature 6 °F 14 °F -18 °F (1989)
Degree Days  
Heating Degree Days 55    
Moisture  
Dew Point 5 °F    
Average Humidity 80    
Maximum Humidity 86    
Minimum Humidity 68    
Precipitation  
Precipitation 0.00 in - - ()
Sea Level Pressure  
Sea Level Pressure 30.20 in    
Wind  
Wind Speed 0 mph (North)    
Max Wind Speed 0 mph    
Max Gust Speed -    
Visibility 8 miles    
Events Snow    
Averages and records for this station are not official NWS values.
T = Trace of Precipitation, MM = Missing Value Source: NWS Daily Summary

Daily Weather History Graph

Daily Weather History Graph

Search for Another Location

Airport or City:

Trip Planner

Search our weather history database for the weather conditions in past years. The results will help you decide how hot, cold, wet, or windy it might be!

Date:

Astronomy

Dec. 23, 2013 Rise Set
Actual Time 8:17 AM EST 5:00 PM EST
Civil Twilight 7:43 AM EST 5:34 PM EST
Nautical Twilight 7:05 AM EST 6:12 PM EST
Astronomical Twilight 6:29 AM EST 6:48 PM EST
Moon 11:26 PM EST (12/23) 11:26 AM EST (12/23)
Length of Visible Light 9h 51m
Length of Day
8h 42m
Waning Gibbous, 68% of the Moon is Illuminated
Dec 23
Waning Gibbous
Dec 25
Last Quarter
Jan 1
New
Jan 7
First Quarter
Jan 15
Full

Hourly Weather History & Observations

Time (EST) Temp. Dew Point Humidity Pressure Visibility Wind Dir Wind Speed Gust Speed Precip Events Conditions
12:15 AM 13.5 °F 9.5 °F 84% 30.04 in 3.0 mi Calm Calm - N/A Snow Light Snow
12:34 AM 13.5 °F 9.5 °F 84% 30.04 in 2.5 mi Calm Calm - N/A Snow Light Snow
12:55 AM 13.5 °F 9.1 °F 83% 30.05 in 3.0 mi Calm Calm - N/A Snow Light Snow
1:15 AM 13.5 °F 9.5 °F 84% 30.04 in 3.0 mi Calm Calm - N/A Snow Light Snow
1:34 AM 13.5 °F 9.5 °F 84% 30.06 in 2.5 mi Calm Calm - N/A Snow Light Snow
1:55 AM 11.8 °F 7.7 °F 83% 30.07 in 4.0 mi Calm Calm - N/A Snow Light Snow
2:15 AM 11.7 °F 7.5 °F 83% 30.07 in 4.0 mi Calm Calm - N/A Snow Light Snow
2:34 AM 11.5 °F 7.3 °F 83% 30.07 in 4.0 mi Calm Calm - N/A Snow Light Snow
2:55 AM 11.5 °F 7.3 °F 83% 30.08 in 4.0 mi Calm Calm - N/A Snow Light Snow
3:15 AM 11.5 °F 7.3 °F 83% 30.08 in 4.0 mi Calm Calm - N/A Snow Light Snow
3:34 AM 11.5 °F 7.3 °F 83% 30.09 in 4.0 mi Calm Calm - N/A Snow Light Snow
3:55 AM 11.7 °F 7.5 °F 83% 30.09 in 5.0 mi Calm Calm - N/A Snow Light Snow
4:15 AM 11.5 °F 7.5 °F 84% 30.09 in 2.5 mi Calm Calm - N/A Snow Light Snow
4:35 AM 11.3 °F 7.7 °F 85% 30.09 in 3.0 mi Calm Calm - N/A Snow Light Snow
4:55 AM 10.9 °F 7.3 °F 85% 30.09 in 3.0 mi Calm Calm - N/A Snow Light Snow
5:15 AM 10.9 °F 7.3 °F 85% 30.11 in 3.0 mi Calm Calm - N/A Snow Light Snow
5:35 AM 10.9 °F 7.3 °F 85% 30.11 in 4.0 mi Calm Calm - N/A Snow Light Snow
5:55 AM 10.9 °F 7.2 °F 85% 30.12 in 4.0 mi Calm Calm - N/A Snow Light Snow
6:15 AM 10.9 °F 7.2 °F 85% 30.13 in 4.0 mi Calm Calm - N/A Snow Light Snow
6:35 AM 10.9 °F 6.8 °F 83% 30.13 in 4.0 mi Calm Calm - N/A Snow Light Snow
6:55 AM 10.9 °F 7.2 °F 85% 30.13 in 3.0 mi Calm Calm - N/A Snow Light Snow
7:15 AM 10.4 °F 6.6 °F 85% 30.14 in 5.0 mi Calm Calm - N/A Snow Light Snow
7:35 AM 9.7 °F 5.9 °F 85% 30.14 in 4.0 mi Calm Calm - N/A Snow Light Snow
7:55 AM 8.8 °F 5.2 °F 85% 30.15 in 5.0 mi Calm Calm - N/A Snow Light Snow
8:15 AM 8.4 °F 4.8 °F 85% 30.16 in 7.0 mi Calm Calm - N/A Snow Light Snow
8:35 AM 8.4 °F 4.8 °F 85% 30.17 in 10.0 mi Calm Calm - N/A Snow Light Snow
8:55 AM 8.4 °F 4.8 °F 85% 30.18 in 10.0 mi Calm Calm - N/A   Scattered Clouds
9:15 AM 8.4 °F 4.5 °F 84% 30.19 in 10.0 mi Calm Calm - N/A   Scattered Clouds
9:35 AM 8.4 °F 4.5 °F 84% 30.19 in 10.0 mi Calm Calm - N/A   Clear
9:55 AM 8.6 °F 4.1 °F 82% 30.20 in 10.0 mi Calm Calm - N/A   Clear
10:15 AM 9.0 °F 4.1 °F 81% 30.21 in 10.0 mi Calm Calm - N/A   Clear
10:35 AM 10.0 °F 4.6 °F 79% 30.21 in 10.0 mi Calm Calm - N/A   Clear
10:55 AM 10.2 °F 4.5 °F 78% 30.21 in 10.0 mi Calm Calm - N/A   Clear
11:15 AM 10.8 °F 4.8 °F 77% 30.22 in 10.0 mi Calm Calm - N/A   Clear
11:35 AM 10.9 °F 3.9 °F 73% 30.22 in 7.0 mi Calm Calm - N/A   Scattered Clouds
11:54 AM 10.8 °F 3.9 °F 74% 30.22 in 7.0 mi Calm Calm - N/A   Scattered Clouds
12:15 PM 11.5 °F 3.9 °F 72% 30.22 in 10.0 mi Calm Calm - N/A   Scattered Clouds
12:35 PM 11.1 °F 3.6 °F 72% 30.22 in 10.0 mi Calm Calm - N/A   Mostly Cloudy
12:55 PM 13.5 °F 5.2 °F 70% 30.22 in 10.0 mi Calm Calm - N/A   Scattered Clouds
1:15 PM 13.5 °F 4.6 °F 68% 30.22 in 10.0 mi Calm Calm - N/A   Mostly Cloudy
1:35 PM 13.5 °F 4.8 °F 68% 30.21 in 10.0 mi Calm Calm - N/A   Scattered Clouds
1:54 PM 14.0 °F 5.4 °F 69% 30.22 in 10.0 mi Calm Calm - N/A   Scattered Clouds
2:15 PM 13.5 °F 4.8 °F 68% 30.22 in 10.0 mi Calm Calm - N/A   Scattered Clouds
2:35 PM 13.6 °F 5.0 °F 68% 30.22 in 10.0 mi Calm Calm - N/A   Scattered Clouds
2:54 PM 13.5 °F 5.7 °F 71% 30.23 in 10.0 mi Calm Calm - N/A   Mostly Cloudy
3:15 PM 11.3 °F 3.9 °F 72% 30.24 in 10.0 mi Calm Calm - N/A   Scattered Clouds
3:35 PM 10.9 °F 3.4 °F 72% 30.25 in 10.0 mi Calm Calm - N/A   Scattered Clouds
3:54 PM 10.9 °F 3.2 °F 71% 30.26 in 10.0 mi Calm Calm - N/A   Scattered Clouds
4:15 PM 10.9 °F 3.4 °F 72% 30.27 in 10.0 mi Calm Calm - N/A   Scattered Clouds
4:35 PM 10.9 °F 3.9 °F 73% 30.27 in 10.0 mi Calm Calm - N/A   Mostly Cloudy
4:55 PM 10.9 °F 4.1 °F 74% 30.27 in 10.0 mi Calm Calm - N/A   Overcast
5:15 PM 10.9 °F 4.5 °F 75% 30.28 in 10.0 mi Calm Calm - N/A   Overcast
5:35 PM 8.4 °F 3.2 °F 79% 30.28 in 10.0 mi Calm Calm - N/A   Overcast
5:55 PM 8.4 °F 4.3 °F 83% 30.29 in 10.0 mi Calm Calm - N/A   Overcast
6:15 PM 9.0 °F 4.8 °F 83% 30.29 in 7.0 mi Calm Calm - N/A Snow Light Snow
6:35 PM 9.3 °F 5.0 °F 83% 30.29 in 7.0 mi Calm Calm - N/A Snow Light Snow
6:55 PM 10.0 °F 5.2 °F 81% 30.30 in 10.0 mi Calm Calm - N/A   Overcast
7:15 PM 10.0 °F 5.0 °F 80% 30.30 in 10.0 mi Calm Calm - N/A   Overcast
7:35 PM 10.0 °F 5.0 °F 80% 30.30 in 10.0 mi Calm Calm - N/A   Overcast
7:55 PM 8.8 °F 4.1 °F 81% 30.31 in 10.0 mi Calm Calm - N/A   Overcast
8:15 PM 8.6 °F 4.1 °F 82% 30.32 in 10.0 mi Calm Calm - N/A   Overcast
8:34 PM 8.4 °F 4.1 °F 83% 30.32 in 10.0 mi Calm Calm - N/A   Overcast
8:55 PM 8.4 °F 4.3 °F 83% 30.32 in 10.0 mi Calm Calm - N/A   Overcast
9:15 PM 8.4 °F 4.5 °F 84% 30.32 in 10.0 mi Calm Calm - N/A Snow Light Snow
9:34 PM 8.4 °F 4.8 °F 85% 30.32 in 10.0 mi Calm Calm - N/A   Overcast
9:55 PM 8.2 °F 4.8 °F 86% 30.32 in 10.0 mi Calm Calm - N/A   Overcast
10:15 PM 6.8 °F 3.2 °F 85% 30.32 in 10.0 mi Calm Calm - N/A   Overcast
10:34 PM 6.6 °F 3.2 °F 86% 30.32 in 10.0 mi Calm Calm - N/A   Overcast
10:55 PM 7.0 °F 3.0 °F 84% 30.32 in 10.0 mi Calm Calm - N/A   Overcast
11:15 PM 8.4 °F 3.7 °F 81% 30.32 in 10.0 mi Calm Calm - N/A   Overcast
11:34 PM 8.4 °F 3.2 °F 79% 30.32 in 10.0 mi Calm Calm - N/A   Overcast
11:55 PM 6.6 °F 1.4 °F 79% 30.32 in 10.0 mi Calm Calm - N/A   Mostly Cloudy